Weather History for Frankfort, MI

Change the Weather History Date:

Friday, February 15, 2013

  Actual Average (KTVC) Record (KTVC)
Temperature  
Mean Temperature 20 °F 22 °F  
Max Temperature 23 °F 30 °F 52 °F (1954)
Min Temperature 18 °F 15 °F -18 °F (1904)
Degree Days  
Heating Degree Days 44 42  
Month to date heating degree days 651  
Since 1 July heating degree days 4807  
Moisture  
Dew Point 14 °F    
Average Humidity 72    
Maximum Humidity 89    
Minimum Humidity 61    
Precipitation  
Precipitation 0.00 in 0.05 in 0.55 in (1967)
Month to date precipitation 0.82  
Year to date precipitation 3.64  
Sea Level Pressure  
Sea Level Pressure 30.04 in    
Wind  
Wind Speed 9 mph (NW)    
Max Wind Speed 15 mph    
Max Gust Speed 22 mph    
Visibility 8 miles    
Events Snow    
T = Trace of Precipitation, MM = Missing Value Source: NWS Daily Summary

Daily Weather History Graph

Daily Weather History Graph

Search for Another Location

Airport:

Trip Planner

Search our weather history database for the weather conditions in past years. The results will help you decide how hot, cold, wet, or windy it might be!

Date:

Astronomy

Feb. 15, 2013 Rise Set
Actual Time 7:44 AM EST 6:13 PM EST
Civil Twilight 7:14 AM EST 6:43 PM EST
Nautical Twilight 6:40 AM EST 7:17 PM EST
Astronomical Twilight 6:06 AM EST 7:51 PM EST
Moon 10:04 AM EST (2/15) No Moon Set
Length of Visible Light 11h 29m
Length of Day
10h 29m
Waxing Crescent, 30% of the Moon is Illuminated
Feb 15
Waxing Crescent
Feb 17
First Quarter
Feb 25
Full
Mar 4
Last Quarter
Mar 11
New

Hourly Weather History & Observations

Time (EST) Temp. Windchill Dew Point Humidity Pressure Visibility Wind Dir Wind Speed Gust Speed Precip Events Conditions
12:16 AM 23.0 °F 10.6 °F 15.8 °F 74% 29.91 in 10.0 mi NW 13.8 mph 19.6 mph N/A   Overcast
12:31 AM 23.0 °F 12.4 °F 15.1 °F 72% 29.91 in 10.0 mi NNW 10.4 mph 18.4 mph N/A   Overcast
12:53 AM 23.0 °F 12.4 °F 15.6 °F 73% 29.92 in 10.0 mi NNW 10.4 mph - N/A Snow Light Snow
1:13 AM 23.0 °F 11.7 °F 15.6 °F 73% 29.92 in 10.0 mi NW 11.5 mph 17.3 mph N/A Snow Light Snow
1:53 AM 22.8 °F 11.5 °F 14.9 °F 72% 29.93 in 10.0 mi NW 11.5 mph 17.3 mph N/A Snow Light Snow
2:13 AM 22.8 °F 12.2 °F 14.7 °F 71% 29.93 in 10.0 mi NW 10.4 mph 19.6 mph N/A Snow Light Snow
2:54 AM 23.0 °F 13.1 °F 15.3 °F 72% 29.94 in 10.0 mi NW 9.2 mph - N/A Snow Light Snow
3:34 AM 22.6 °F 10.7 °F 15.6 °F 74% 29.95 in 5.0 mi NW 12.7 mph 19.6 mph N/A Snow Light Snow
3:54 AM 22.6 °F 9.6 °F 14.9 °F 72% 29.95 in 7.0 mi NW 15.0 mph 21.9 mph N/A Snow Light Snow
4:14 AM 22.1 °F 12.0 °F 14.7 °F 73% 29.95 in 7.0 mi NNW 9.2 mph 16.1 mph N/A Snow Light Snow
4:54 AM 22.1 °F 12.8 °F 14.5 °F 73% 29.97 in 7.0 mi NNW 8.1 mph - N/A Snow Light Snow
5:14 AM 22.1 °F 10.6 °F 14.7 °F 73% 29.98 in 7.0 mi NW 11.5 mph 16.1 mph N/A Snow Light Snow
5:34 AM 22.5 °F 11.1 °F 14.0 °F 70% 29.98 in 10.0 mi NW 11.5 mph - N/A Snow Light Snow
5:55 AM 22.6 °F 11.9 °F 14.7 °F 72% 29.98 in 10.0 mi NW 10.4 mph 18.4 mph N/A Snow Light Snow
6:15 AM 22.3 °F 13.0 °F 15.1 °F 74% 29.99 in 10.0 mi NNW 8.1 mph - N/A Snow Light Snow
6:35 AM 22.1 °F 12.8 °F 14.7 °F 73% 30.00 in 7.0 mi NW 8.1 mph 18.4 mph N/A Snow Light Snow
6:55 AM 22.1 °F 11.3 °F 14.7 °F 73% 30.00 in 7.0 mi NNW 10.4 mph - N/A Snow Light Snow
7:15 AM 22.1 °F 12.8 °F 14.7 °F 73% 30.01 in 7.0 mi NNW 8.1 mph 17.3 mph N/A Snow Light Snow
7:35 AM 22.5 °F 11.7 °F 14.7 °F 72% 30.02 in 10.0 mi NW 10.4 mph - N/A   Overcast
7:55 AM 22.1 °F 10.0 °F 14.7 °F 73% 30.03 in 10.0 mi NNW 12.7 mph 16.1 mph N/A   Overcast
8:15 AM 21.9 °F 11.7 °F 14.4 °F 73% 30.03 in 10.0 mi NNW 9.2 mph 17.3 mph N/A   Overcast
8:36 AM 21.7 °F 10.8 °F 14.0 °F 72% 30.04 in 10.0 mi NW 10.4 mph 18.4 mph N/A   Overcast
8:56 AM 21.7 °F 10.2 °F 13.6 °F 71% 30.05 in 10.0 mi NW 11.5 mph - N/A   Overcast
9:16 AM 21.6 °F 9.9 °F 13.5 °F 71% 30.06 in 10.0 mi NW 11.5 mph 17.3 mph N/A Snow Light Snow
9:36 AM 21.6 °F 12.1 °F 12.9 °F 69% 30.07 in 10.0 mi NNW 8.1 mph - N/A Snow Light Snow
9:56 AM 21.6 °F 11.3 °F 13.3 °F 70% 30.08 in 10.0 mi NW 9.2 mph - N/A   Overcast
10:11 AM 21.2 °F 10.9 °F 12.6 °F 69% 30.08 in 10.0 mi NNW 9.2 mph - N/A   Overcast
10:31 AM 21.0 °F 12.4 °F 12.0 °F 68% 30.09 in 10.0 mi NNW 6.9 mph - N/A Snow Light Snow
10:51 AM 20.8 °F 10.4 °F 14.0 °F 75% 30.09 in 3.0 mi NW 9.2 mph - N/A Snow Light Snow
11:31 AM 21.2 °F 11.7 °F 13.6 °F 73% 30.09 in 7.0 mi NW 8.1 mph 16.1 mph N/A Snow Light Snow
11:52 AM 21.2 °F 11.7 °F 12.9 °F 70% 30.09 in 10.0 mi NNW 8.1 mph - N/A Snow Light Snow
12:52 PM 21.4 °F 11.9 °F 13.1 °F 70% 30.09 in 10.0 mi WNW 8.1 mph - N/A Snow Light Snow
1:32 PM 21.7 °F 11.5 °F 11.8 °F 66% 30.09 in 10.0 mi NW 9.2 mph - N/A   Overcast
2:53 PM 21.6 °F 11.3 °F 11.1 °F 64% 30.08 in 10.0 mi NW 9.2 mph - N/A   Overcast
3:13 PM 21.2 °F 12.6 °F 14.0 °F 74% 30.08 in 2.0 mi NW 6.9 mph - N/A Snow Light Snow
3:33 PM 21.2 °F 10.9 °F 13.1 °F 71% 30.08 in 7.0 mi WNW 9.2 mph - N/A Snow Light Snow
3:53 PM 21.2 °F 11.7 °F 13.1 °F 71% 30.09 in 10.0 mi NW 8.1 mph - N/A Snow Light Snow
4:33 PM 21.0 °F 10.6 °F 11.3 °F 66% 30.09 in 10.0 mi NW 9.2 mph - N/A   Overcast
4:54 PM 20.5 °F 14.0 °F 12.9 °F 73% 30.10 in 5.0 mi NNW 4.6 mph - N/A Snow Light Snow
5:14 PM 21.0 °F 13.4 °F 12.6 °F 70% 30.10 in 7.0 mi WNW 5.8 mph - N/A Snow Light Snow
5:34 PM 21.0 °F 13.4 °F 11.7 °F 67% 30.10 in 5.0 mi WNW 5.8 mph - N/A Snow Light Snow
5:54 PM 21.2 °F 12.6 °F 9.9 °F 62% 30.10 in 10.0 mi WNW 6.9 mph - N/A   Overcast
6:34 PM 20.8 °F - 10.9 °F 66% 30.11 in 10.0 mi Calm Calm - N/A   Overcast
6:54 PM 21.0 °F 16.2 °F 9.9 °F 62% 30.11 in 10.0 mi NNW 3.5 mph - N/A   Overcast
7:14 PM 21.2 °F - 9.5 °F 61% 30.11 in 10.0 mi Calm Calm - N/A   Overcast
7:34 PM 21.4 °F - 9.9 °F 61% 30.11 in 10.0 mi Calm Calm - N/A   Overcast
7:55 PM 21.0 °F - 11.1 °F 66% 30.11 in 10.0 mi Calm Calm - N/A   Overcast
8:15 PM 20.8 °F - 11.8 °F 68% 30.10 in 10.0 mi Calm Calm - N/A   Overcast
9:35 PM 19.9 °F - 17.1 °F 89% 30.10 in 1.0 mi Calm Calm - N/A Snow Light Snow
10:35 PM 20.8 °F - 17.8 °F 88% 30.09 in 1.5 mi Calm Calm - N/A Snow Light Snow
10:56 PM 20.7 °F 15.8 °F 17.4 °F 87% 30.08 in 1.0 mi West 3.5 mph - N/A Snow Snow
11:16 PM 20.1 °F 10.3 °F 17.4 °F 89% 30.08 in 0.8 mi North 8.1 mph - N/A Snow Snow
11:36 PM 18.9 °F 9.8 °F 15.8 °F 88% 30.09 in 0.5 mi North 6.9 mph - N/A Snow Heavy Snow
11:56 PM 18.5 °F 10.4 °F 15.1 °F 86% 30.09 in 1.2 mi North 5.8 mph - N/A Snow Light Snow